Location: ????????
(55.6773°N, 38.2421°E)
Time: 00:50:05
(UTC+00:00)

ISS - Visible Passes

Search period start: 14 July 2024 00:00
Search period end: 24 July 2024 00:00
Orbit: 410 x 424 km, 51.6° (Epoch: 13 July)

Date Brightness Start Highest point End Pass type
(mag) Time Alt. Az. Time Alt. Az. Time Alt. Az.
14 Jul -3.3 19:30:47 10° WSW 19:33:56 41° S 19:37:06 10° ESE visible
14 Jul -3.0 21:07:20 10° W 21:10:18 30° SSW 21:11:39 22° SSE visible
15 Jul -3.1 20:19:04 10° W 20:22:08 35° SSW 20:24:24 16° SE visible
15 Jul -1.7 21:56:10 10° WSW 21:57:15 14° SW 21:57:15 14° SW visible
16 Jul -3.2 19:30:46 10° WSW 19:33:54 39° S 19:37:02 10° ESE visible
16 Jul -2.3 21:07:36 10° WSW 21:10:09 21° SSW 21:10:09 21° SSW visible
17 Jul -2.6 20:19:07 10° W 20:21:56 26° SSW 20:23:05 21° SSE visible
18 Jul -2.9 19:30:41 10° W 19:33:39 31° SSW 19:36:04 14° SE visible
18 Jul -1.4 21:08:16 10° WSW 21:08:56 12° SW 21:08:56 12° SW visible
19 Jul -3.0 18:42:14 10° W 18:45:19 36° S 18:48:24 10° ESE visible
19 Jul -2.0 20:19:17 10° WSW 20:21:27 16° SSW 20:21:56 16° SSW visible
20 Jul -2.2 19:30:33 10° WSW 19:33:09 21° SSW 19:34:55 14° SSE visible
21 Jul -2.5 18:41:55 10° W 18:44:46 26° SSW 18:47:36 10° SE visible
22 Jul -1.5 19:30:47 10° WSW 19:32:20 13° SW 19:33:46 10° S visible
23 Jul -1.8 18:41:40 10° WSW 18:43:56 17° SSW 18:46:11 10° SSE visible
